User: anonymous   Login
Location: Unspecified
(0.0000°N, 0.0000°E)
Time: 22:31:02
(UTC+00:00)
Language:

Oscar 11 - Orbit

View from above orbital plane
View from above orbital plane
View from above satellite
View from above satellite

Ground track
Ground track

The orbit data is extracted from the following two-line orbital elements,

1 14781U 84021B   18175.55721964  .00000088  00000-0  17062-4 0  9993
2 14781  97.6484 211.4593 0009860  63.9859 296.2369 14.83012846845538
Epoch (UTC): 24 June 2018 13:22:23
Eccentricity: 0.0009860
inclination: 97.6484°
perigee height: 613 km
apogee height: 627 km
right ascension of ascending node: 211.4593°
argument of perigee: 63.9859°
revolutions per day: 14.83012846
mean anomaly at epoch: 296.2369°
orbit number at epoch: 84553

The dashed part of the orbit path shows where the satellite is in the earth's shadow,  

DLR